Location: Newark
(34.6283°N, 36.0776°E)
Time: 05:44:42
(UTC+00:00)

Courier 1B Rocket - Pass Details

Date: 21 September 2019
Orbit: 920 x 1202 km, 28.2° (Epoch: 22 October)

Event Time Altitude Azimuth Distance (km) Brightness Sun altitude
Rises 15:46:13 0° 267° (W) 3,902 10.9 -3.2°
Reaches altitude 10° 15:49:11 10° 261° (W) 2,900 9.2 -3.8°
Maximum altitude 15:55:47 44° 192° (SSW) 1,380 5.9 -5.2°
Drops below altitude 10° 16:01:57 10° 122° (ESE) 2,707 6.8 -6.4°
Enters shadow 16:03:14 - 118° (ESE) 3,133 7.1 -6.7°
